Regional Weather Roundup
Issued by NWS

Home | Current Version | Previous Version | Text Only | Print | Product List | Glossary On
Versions: 1 2 3 4 5 6 7 8 9 10 11 12 13 14 15 16 17 18 19 20 21 22 23 24 25 26 27 28
000
ASUS45 KPSR 251910
RWRAZ

ARIZONA HOURLY REGIONAL WEATHER ROUNDUP
NATIONAL WEATHER SERVICE PHOENIX AZ
1200 PM MST SAT FEB 25 2017

NOTE: FAIR INDICATES FEW OR NO CLOUDS BELOW 12,000 FEET WITH NO
SIGNIFICANT WEATHER AND/OR OBSTRUCTIONS TO VISIBILITY.

AZZ001>003-036-252000-
NORTHWEST ARIZONA

CITY           SKY/WX    TMP DP  RH WIND       PRES   REMARKS
BULLHEAD CITY  SUNNY     55  25  30 S3        30.11F
KINGMAN        SUNNY     52  -1  11 SW18      30.07F
$$

AZZ004>008-015-016-018-252000-
NORTH CENTRAL ARIZONA

CITY           SKY/WX    TMP DP  RH WIND       PRES   REMARKS
GRAND CANYON   SUNNY     35  10  35 SW13G22   30.04F WCI  26
WILLIAMS       SUNNY     37   5  25 W12G21    30.05F WCI  30
FLAGSTAFF      SUNNY     38   4  24 W13G20    30.03F WCI  30
PAYSON         SUNNY     45  14  29 SW9       30.12S
PAGE           SUNNY     41   4  21 VRB3      30.05F
$$

AZZ009>014-017-252000-
NORTHEAST ARIZONA

CITY           SKY/WX    TMP DP  RH WIND       PRES   REMARKS
WINSLOW        SUNNY     48  12  23 N7        30.05F
SAINT JOHNS    SUNNY     49   8  19 W12G17    30.02F
WINDOW ROCK    SUNNY     41   8  25 SW13      30.01F
SHOW LOW       SUNNY     41   1  19 SW15G22   30.07S
$$

AZZ023-252000-
GREATER PHOENIX AREA

CITY           SKY/WX    TMP DP  RH WIND       PRES   REMARKS
PHOENIX        MOSUNNY   59  24  26 CALM      30.10F
BUCKEYE        SUNNY     57  25  28 E5        30.11F
LUKE AFB       SUNNY     58  24  27 CALM      30.10F
DEER VALLEY    SUNNY     58  23  26 CALM      30.10F
SCOTTSDALE     SUNNY     58  20  22 VRB5      30.11F
MESA-FALCON    SUNNY    N/A N/A N/A N7        30.08F
MESA-GATEWAY   MOSUNNY   57  21  24 CALM      30.12S
$$

AZZ027-028-252000-
SOUTHWEST MARICOPA COUNTY AND PINAL COUNTY

CITY           SKY/WX    TMP DP  RH WIND       PRES   REMARKS
CASA GRANDE    NOT AVBL
$$

AZZ503-504-507>509-252000-
SOUTHEAST ARIZONA

CITY           SKY/WX    TMP DP  RH WIND       PRES   REMARKS
TUCSON         SUNNY     61  14  16 CALM      30.09F
DAVIS-MONTHAN  SUNNY     60  15  17 CALM      30.07F
NOGALES        SUNNY     62   6  11 NW5       30.07F
SIERRA VISTA   SUNNY     57   5  12 CALM      30.08F
DOUGLAS        SUNNY     59   7  12 SW5       30.07F
SAFFORD        SUNNY     54  14  20 SW3       30.07F
$$

AZZ020-021-025-026-031-252000-
SOUTHWEST ARIZONA

CITY           SKY/WX    TMP DP  RH WIND       PRES   REMARKS
YUMA           SUNNY     64  26  23 CALM      30.09F
$$

CAZ031-033-041-043-047-048-061-252000-
SOUTHERN CALIFORNIA

CITY           SKY/WX    TMP DP  RH WIND       PRES   REMARKS
DOWNTOWN L.A.  SUNNY     62  37  39 CALM      30.11F
L.A. AIRPORT   PTSUNNY   58  38  47 SE5       30.11F
SAN DIEGO      MOSUNNY   60  38  43 W7        30.14F
BURBANK        MOSUNNY   56  31  38 SE10      30.10F
ONTARIO        MOSUNNY   55  35  47 SE3       30.11F
EL CENTRO NAS  MOSUNNY   63  34  33 N8        30.11F
IMPERIAL         N/A    N/A N/A N/A MISG      30.09F
BLYTHE         SUNNY     59  30  33 E3        30.11F
NEEDLES        SUNNY     58  27  30 CALM      30.10F
$$

NVZ020-UTZ003-252000-
SOUTHERN NEVADA-UTAH

CITY           SKY/WX    TMP DP  RH WIND       PRES   REMARKS
LAS VEGAS      PTSUNNY   50  15  24 NE7       30.06F
SALT LAKE CITY CLOUDY    27  20  75 SE8       30.10S WCI  19
$$

NMZ009-TXZ055-252000-
NEW MEXICO-WEST TEXAS

CITY           SKY/WX    TMP DP  RH WIND       PRES   REMARKS
ALBUQUERQUE    MOSUNNY   41   4  21 VRB5      30.04F
EL PASO        MOSUNNY   59   4  11 SW9       30.05F
$$


........................KEY........................
SKY/WX - SKY CONDITION/WEATHER
TMP    - TEMPERATURE IN FAHRENHEIT
DP     - DEW POINT IN FAHRENHEIT
RH     - RELATIVE HUMIDITY IN PERCENT
WIND   - DIRECTION AND SPEED IN MILES PER HOUR (MPH)
VRB    - VARIABLE WIND DIRECTION
PRES   - MEAN SEA LEVEL PRESSURE IN INCHES OF MERCURY
         F - FALLING PRESSURE   R - RISING PRESSURE
         S - STEADY PRESSURE
VSB    - VISIBILITY IN MILES
HX     - HEAT INDEX IN FAHRENHEIT
WCI    - WIND CHILL INDEX IN FAHRENHEIT
TC     - TEMPERATURE IN CELSIUS WHICH IS ALSO KNOWN AS
         TEMPERATURE IN CENTIGRADE
AFB    - AIR FORCE BASE
         LUKE AFB IS LUKE AIR FORCE BASE
         DAVIS-MONTHAN IS DAVIS-MONTHAN AIR FORCE BASE
NAS    - NAVAL AIR STATION
         EL CENTRO NAS IS EL CENTRO NAVAL AIR STATION
N/A    - NOT AVAILABLE





USA.gov is the U.S. government's official web portal to all federal, state and local government web resources and services.